Location: Bachas
(43.2439°N, 0.9375°E)
Time: 03:42:58
(UTC+00:00)

METEOR-M - Pass Details

Date: 18 February 2020
Orbit: 815 x 820 km, 98.4° (Epoch: 09 April)

Event Time Altitude Azimuth Distance (km) Brightness Sun altitude
Rises 05:41:41 0° 9° (N) 3,358 7.4 -13.2°
Reaches altitude 10° 05:44:05 10° 5° (N) 2,420 6.6 -12.8°
Maximum altitude 05:49:17 54° 289° (WNW) 988 4.2 -11.8°
Drops below altitude 10° 05:54:27 10° 213° (SSW) 2,402 6.3 -10.9°
Sets 05:56:49 0° 209° (SSW) 3,329 7.1 -10.5°
